Location: Quebec
(46.8000°N, 71.2500°W)
Time: 17:30:56
(UTC-04:00)

Vanguard 2 - All Passes

Search period start: 21 October 2017 00:00
Search period end: 31 October 2017 00:00
Orbit: 554 x 2939 km, 32.9° (Epoch: 20 October)

Date Brightness Start Highest point End Pass type
(mag) Time Alt. Az. Time Alt. Az. Time Alt. Az.
21 Oct - 07:05:29 10° SSW 07:16:44 23° SSE 07:25:30 10° ESE daylight
21 Oct - 09:14:07 10° SW 09:26:26 35° S 09:34:42 10° ESE daylight
21 Oct - 11:25:33 10° WSW 11:35:22 33° SSW 11:41:46 10° SE daylight
21 Oct - 13:38:21 10° WSW 13:42:51 16° SW 13:46:25 10° S daylight
22 Oct - 05:18:58 10° SSE 05:24:53 13° SE 05:30:19 10° ESE visible
22 Oct - 07:21:59 10° SSW 07:34:39 28° SSE 07:44:10 10° ESE daylight
22 Oct - 09:31:46 10° WSW 09:44:25 38° S 09:52:44 10° ESE daylight
22 Oct - 11:43:41 10° WSW 11:53:09 31° SSW 11:59:26 10° SE daylight
22 Oct - 13:57:51 10° WSW 14:00:19 12° SW 14:02:30 10° SSW daylight
23 Oct - 05:32:53 10° S 05:42:38 18° SE 05:51:09 10° ESE visible
23 Oct - 07:38:56 10° SW 07:52:36 33° SSE 08:02:33 10° ESE daylight
23 Oct - 09:49:35 10° WSW 10:02:21 39° S 10:10:40 10° ESE daylight
23 Oct - 12:01:57 10° WSW 12:10:53 28° SSW 12:16:57 10° SSE daylight
24 Oct - 05:48:24 10° SSW 06:00:26 23° SSE 06:10:33 10° ESE visible
24 Oct - 07:56:12 10° SW 08:10:33 38° SSE 08:20:46 10° ESE daylight
24 Oct - 10:07:33 10° WSW 10:20:15 39° S 10:28:31 10° ESE daylight
24 Oct - 12:20:22 10° WSW 12:28:29 24° SSW 12:34:14 10° SSE daylight
25 Oct - 04:04:29 10° SSE 04:08:35 11° SE 04:12:34 10° ESE visible
25 Oct - 06:04:42 10° SSW 06:18:15 29° SSE 06:29:22 10° ESE visible
25 Oct - 08:13:45 10° SW 08:28:31 41° S 08:38:51 10° ESE daylight
25 Oct - 10:25:37 10° WSW 10:38:06 38° SSW 10:46:16 10° SE daylight
25 Oct - 12:39:02 10° WSW 12:46:01 19° SW 12:51:12 10° S daylight
26 Oct - 04:17:02 10° S 04:26:10 16° SE 04:34:46 10° ESE visible
26 Oct - 06:21:29 10° SSW 06:36:06 34° SSE 06:47:52 10° E visible
26 Oct - 08:31:29 10° WSW 08:46:28 43° S 08:56:50 10° ESE daylight
26 Oct - 10:43:48 10° WSW 10:55:54 36° SSW 11:03:53 10° SE daylight
26 Oct - 12:58:12 10° WSW 13:03:26 15° SW 13:07:38 10° S daylight
27 Oct - 04:32:07 10° S 04:43:48 22° SE 04:54:37 10° ESE visible
27 Oct - 06:38:37 10° SW 06:54:00 39° SSE 07:06:09 10° ESE visible
27 Oct - 08:49:21 10° WSW 09:04:24 44° S 09:14:45 10° ESE daylight
27 Oct - 11:02:06 10° W 11:13:35 32° SSW 11:21:21 10° SSE daylight
27 Oct - 13:18:59 10° WSW 13:20:45 11° SW 13:22:22 10° SW daylight
28 Oct - 04:48:08 10° SSW 05:01:28 27° SSE 05:13:40 10° E visible
28 Oct - 06:56:02 10° SW 07:11:55 43° SSE 07:24:19 10° ESE daylight
28 Oct - 09:07:22 10° WSW 09:22:19 44° S 09:32:34 10° ESE daylight
28 Oct - 11:20:33 10° W 11:31:10 28° SSW 11:38:36 10° SSE daylight
29 Oct - 03:02:39 10° SSE 03:09:39 14° SE 03:16:42 10° ESE visible
29 Oct - 05:04:43 10° SSW 05:19:12 33° SSE 05:32:19 10° E visible
29 Oct - 07:13:39 10° WSW 07:29:52 46° S 07:42:22 10° ESE daylight
29 Oct - 09:25:29 10° WSW 09:40:10 42° SSW 09:50:17 10° SE daylight
29 Oct - 11:39:13 10° W 11:48:38 23° SW 11:55:33 10° S daylight
30 Oct - 03:16:53 10° S 03:27:06 19° SE 03:37:26 10° ESE visible
30 Oct - 05:21:42 10° SW 05:36:59 38° SSE 05:50:44 10° E visible
30 Oct - 07:31:27 10° WSW 07:47:49 47° S 08:00:21 10° ESE daylight
30 Oct - 09:43:41 10° W 09:57:57 39° SSW 10:07:51 10° SE daylight
30 Oct - 11:58:17 10° WSW 12:06:00 18° SW 12:12:01 10° S daylight
